Terminal Aerodrome Forecast
Issued by NWS Goodland, KS

Home | Current Version | Previous Version | Text Only | Print | Product List | Glossary On
Versions: 1 2 3 4 5 6 7 8 9 10 11 12 13 14 15 16 17 18
119
FTUS43 KGLD 161527 AAA
TAFGLD
TAF AMD
KGLD 161527Z 1615/1712 36012G22KT 6SM -FZRASN OVC008
      TEMPO 1615/1616 1SM -SN BR BKN005
     FM161600 34012G22KT 1SM -SN OVC003
      TEMPO 1616/1620 1/2SM SN OVC003
     FM162100 34016KT P6SM VCSH SCT003 OVC010
     FM170000 33012KT P6SM SCT015 BKN035
     FM170500 31009KT P6SM FEW025 SCT070=

USA.gov is the U.S. government's official web portal to all federal, state and local government web resources and services.